Regional Weather Roundup
Issued by NWS Sterling, VA

Home | Current Version | Previous Version | Text Only | Print | Product List | Glossary On
Versions: 1 2 3 4 5 6 7 8 9 10 11 12 13 14 15 16 17 18 19 20 21 22 23 24 25 26 27 28 29 30 31 32 33 34 35 36 37 38 39 40 41 42 43 44 45 46 47 48 49
000
ASUS41 KLWX 021710
RWRLWX

REGIONAL WEATHER ROUNDUP
NATIONAL WEATHER SERVICE BALTIMORE MD/WASHINGTON DC
100 PM EDT SUN AUG 02 2015

Note: "FAIR" indicates few or no clouds below 12,000 feet
with no significant weather and/or obstructions to visibility.
 TC=TEMPERATURE CELSIUS

 * =Non NWS site. Station does not report precipitation (e.g. rain,
    snow, etc.), thunder, or fog.

DCZ001-MDZ009-015-VAZ040>042-051-053>054-021800-
WASHINGTON METRO

CITY           SKY/WX    TMP DP  RH WIND       PRES   REMARKS
WASHINGTON NAT PTSUNNY   89  58  34 CALM      29.97F
DULLES         PTSUNNY   83  55  38 W8        29.98F
ANDREWS AFB    MOSUNNY   87  54  32 NW7       29.96F
FT BELVOIR     SUNNY     85  62  45 VRB2      29.97F
LEESBURG*      MOSUNNY   86  57  37 SW6       29.99F
MANASSAS*      SUNNY     86  55  35 W5        29.98F
GAITHERSBURG*  MOSUNNY   82  55  39 W3        30.01F

$$

MDZ006>007-011-014-021800-
BALTIMORE METRO

CITY           SKY/WX    TMP DP  RH WIND       PRES   REMARKS
BWI AIRPORT    PTSUNNY   84  55  36 VRB3      29.95F
MD SCIENCE CTR   N/A     88  55  32 MISG      29.95F
MARTIN STATE   PTSUNNY   86  64  48 SE8       29.97F
ANNAPOLIS      MOSUNNY   84  58  40 CALM      29.95F
FORT MEADE*    MOSUNNY   82  59  44 CALM      29.99S

$$

MDZ012-015-019>023-021800-
MARYLAND EASTERN SHORE

CITY           SKY/WX    TMP DP  RH WIND       PRES   REMARKS
OCEAN CITY     PTSUNNY   83  66  56 E9        29.95S
SALISBURY      MOSUNNY   86  61  42 VRB5      29.95F
BAY BRIDGE AP*   N/A     82  55  39 W5        29.96F
CAMBRIDGE*     SUNNY     84  48  28 N3        29.96S
EASTON*        MOSUNNY   86  59  39 W6        30.00S

$$

MDZ017>025-021800-
SOUTHERN MARYLAND

CITY           SKY/WX    TMP DP  RH WIND       PRES   REMARKS
PATUXENT RIVER PTSUNNY   85  54  34 N6        29.96S
ST INIGOES     MOSUNNY   85  58  39 NE7       29.96S
LEONARDTOWN*   SUNNY     84  52  32 CALM      29.99S

$$

MDZ003>005-021800-
NORTH CENTRAL MARYLAND

CITY           SKY/WX    TMP DP  RH WIND       PRES   REMARKS
FREDERICK*     MOSUNNY   88  59  37 W10       29.99F
HAGERSTOWN APT PTSUNNY   83  55  38 W8        29.96F
WESTMINSTER*   MOSUNNY   84  52  32 SW8       29.98F

$$

MDZ501>502-021800-
WESTERN MARYLAND

CITY           SKY/WX    TMP DP  RH WIND       PRES   REMARKS
OAKLAND*       MOSUNNY   72  63  73 SW10G16   30.08F
CUMBERLAND*    MOSUNNY   86  52  30 S8        30.01F

$$

VAZ025>031-021800-
SHENANDOAH VALLEY

CITY           SKY/WX    TMP DP  RH WIND       PRES   REMARKS
WINCHESTER*    PTSUNNY   84  55  37 W6        29.98F
FRONT ROYAL*   CLOUDY    82  61  47 S3        29.99F
LURAY*         FAIR      86  55  35 E6        30.00F
NEW MARKET*    FAIR      81  56  41 SE3       29.99F
STAUNTON*      MOSUNNY   84  50  31 S3        30.05S
WAYNESBORO*    FAIR      78  55  44 SW3       30.04F

$$

WVZ021-048>050-054>055-021800-
EASTERN WEST VIRGINIA PANHANDLE

CITY           SKY/WX    TMP DP  RH WIND       PRES   REMARKS
MARTINSBURG    MOSUNNY   83  55  38 VRB5      29.98F
PETERSBURG*    CLOUDY   N/A N/A N/A CALM      30.01S

$$

VAZ036>039-050-021800-
CENTRAL FOOTHILLS

CITY           SKY/WX    TMP DP  RH WIND       PRES   REMARKS
CHARLOTTESVILL MOSUNNY   83  54  36 VRB3      30.00F
CULPEPER*      MOSUNNY   83  60  45 NE3       29.99F
ORANGE*        MOSUNNY   84  55  37 CALM      30.01S
GORDONSVILLE*  FAIR      81  59  47 CALM      29.99F
WARRENTON*     FAIR      86  61  42 W6        29.98F

$$

VAZ055>057-021800-
NORTH AND CENTRAL PIEDMONT

CITY           SKY/WX    TMP DP  RH WIND       PRES   REMARKS
FREDERICKSBRG* MOSUNNY   86  60  41 SE3       29.97F
STAFFORD*      MOSUNNY   85  55  36 W3        30.02S

$$

NCZ024-NYZ072-PAZ021-071-VAZ022-071-021800-
OTHER REGIONAL OBSERVATIONS

CITY           SKY/WX    TMP DP  RH WIND       PRES   REMARKS
NEW YORK CITY  SUNNY     88  54  31 MISG      29.94F
PHILADELPHIA   PTSUNNY   87  52  29 VRB7      29.94F
PITTSBURGH     MOSUNNY   82  61  48 SW12      29.95F
ROANOKE        PTSUNNY   82  56  40 VRB5      30.06S
RICHMOND       PTSUNNY   88  62  41 N6        29.98S
RALEIGH        PTSUNNY   85  59  41 NE7       29.99F

$$

ANZ530>537-021800-
MARINE OBSERVATIONS

STATION/POSITION TIME  TEMP    WIND        PRES
                       AIR SEA DIR/SP/G
                 (UTC) (F)     (DEG/KT/KT) (MB)
THOMAS PT LIGHT  NOT AVBL
BALT KEY BRIDGE  1600   81     130/  6/  8 1014.6S
COVE POINT       1600   79      10/  7/  9 1015.5R
LEWISETTA        1600   82 84   20/  3/  5 1014.4R
SOLOMONS ISLAND  1600      83                N/A
PINEY POINT      1612          360/  5/  6   N/A

$$



USA.gov is the U.S. government's official web portal to all federal, state and local government web resources and services.